Simultaneous Nadir Overpasses (SNOs) Predictions

Prediction of SNOs between AQUA and NOAA-19 Satellite Orbit:

Table of predicted SNOs for the next 14.0 days since TLE Epoch: 5/19/2017
Index Date (AQUA) Time (AQUA) Lat,Lon (AQUA) SZA (AQUA ) Date (NOAA-19) Time (NOAA-19) Lat,Lon (NOAA-19) SZA (NOAA-19 ) Distance(km) Time Diff (sec)
1 05/20/2017 00:25:08 80.95, 133.38 63.12 05/20/2017 00:24:15 80.96, 133.45 63.14 1.23 53
2 05/20/2017 01:14:34 -80.96, -59.03 116.88 05/20/2017 01:15:20 -80.95, -58.87 116.92 2.93 46
3 05/22/2017 05:58:52 -80.97,-130.29 117.29 05/22/2017 05:58:11 -80.96,-130.25 117.28 1.61 41
4 05/22/2017 06:48:19 80.96, 37.42 62.70 05/22/2017 06:49:05 80.95, 37.57 62.66 2.87 46
5 05/24/2017 11:32:36 80.96, -33.54 62.27 05/24/2017 11:31:55 80.96, -33.42 62.28 2.07 41
6 05/24/2017 12:22:02 -80.96, 134.07 117.73 05/24/2017 12:23:00 -80.95, 134.18 117.77 2.01 58
7 05/26/2017 17:06:19 -80.95, 63.08 118.12 05/26/2017 17:05:50 -80.96, 63.10 118.11 0.59 29
8 05/26/2017 17:55:46 80.95,-129.24 61.87 05/26/2017 17:56:45 80.96,-129.34 61.86 1.78 59
9 05/28/2017 22:40:03 80.95, 159.71 61.52 05/28/2017 22:39:35 80.96, 159.63 61.55 1.74 28
10 05/28/2017 23:29:29 -80.95, -32.64 118.49 05/28/2017 23:30:39 -80.95, -32.55 118.53 1.80 70
11 05/31/2017 04:13:46 -80.95,-103.71 118.81 05/31/2017 04:13:29 -80.96,-103.72 118.79 1.20 17
12 05/31/2017 05:03:13 80.95, 63.93 61.19 05/31/2017 05:04:24 80.95, 64.06 61.15 2.59 71




NCC Satellite Simultaneous Nadir Overpasses (SNOs) Prediction Service
